Location: Castillon
(43.0896°N, 0.2156°E)
Time: 17:17:28
(UTC+00:00)

Iridium 2 - Pass Details

Date: 16 June 2021
Orbit: 502 x 511 km, 85.5° (Epoch: 04 August)

Event Time Altitude Azimuth Distance (km) Brightness Sun altitude
Exits shadow 23:23:02 53° 281° (WNW) 626 4.1 -23.0°
Drops below altitude 10° 23:26:39 10° 355° (N) 1,727 7.5 -23.1°
Sets 23:28:49 0° 360° (N) 2,616 8.7 -23.1°
